TimeCST,TemperatureF,Dew PointF,Humidity,Sea Level PressureIn,VisibilityMPH,Wind Direction,Wind SpeedMPH,Gust SpeedMPH,PrecipitationIn,Events,Conditions,WindDirDegrees,DateUTC
12:15 AM,21.2,17.6,86,29.86,10.0,North,8.1,-,N/A,,Scattered Clouds,360,2012-12-13 06:15:00
12:35 AM,21.2,17.6,86,29.86,10.0,NNE,3.5,-,N/A,,Mostly Cloudy,20,2012-12-13 06:35:00
12:53 AM,21.2,17.6,86,29.87,10.0,North,3.5,-,N/A,,Overcast,360,2012-12-13 06:53:00
1:15 AM,21.2,17.6,86,29.88,10.0,Calm,Calm,-,N/A,,Mostly Cloudy,0,2012-12-13 07:15:00
1:34 AM,21.2,17.6,86,29.89,10.0,Calm,Calm,-,N/A,,Overcast,0,2012-12-13 07:34:00
1:53 AM,21.2,17.6,86,29.89,10.0,Calm,Calm,-,N/A,,Mostly Cloudy,0,2012-12-13 07:53:00
2:15 AM,21.2,17.6,86,29.91,10.0,Calm,Calm,-,N/A,,Scattered Clouds,0,2012-12-13 08:15:00
2:34 AM,21.2,17.6,86,29.91,10.0,Calm,Calm,-,N/A,,Mostly Cloudy,0,2012-12-13 08:34:00
2:53 AM,21.2,17.6,86,29.91,10.0,NE,4.6,-,N/A,,Overcast,50,2012-12-13 08:53:00
3:15 AM,21.2,17.6,86,29.91,10.0,NE,5.8,-,N/A,,Overcast,50,2012-12-13 09:15:00
3:35 AM,21.2,17.6,86,29.92,10.0,NNE,9.2,-,N/A,,Overcast,30,2012-12-13 09:35:00
3:53 AM,21.2,17.6,86,29.93,5.0,NE,4.6,-,N/A,Snow,Light Snow,40,2012-12-13 09:53:00
4:15 AM,19.4,17.6,93,29.93,0.5,NE,4.6,-,N/A,Snow,Snow,50,2012-12-13 10:15:00
4:35 AM,19.4,17.6,93,29.94,0.8,North,3.5,-,N/A,Snow,Light Snow,10,2012-12-13 10:35:00
4:53 AM,19.4,17.6,93,29.94,1.0,NNE,3.5,-,N/A,Snow,Light Snow,20,2012-12-13 10:53:00
5:14 AM,19.4,17.6,93,29.94,2.0,NNE,5.8,-,N/A,Snow,Light Snow,20,2012-12-13 11:14:00
5:35 AM,19.4,17.6,93,29.95,1.8,North,6.9,-,N/A,Snow,Light Snow,10,2012-12-13 11:35:00
5:52 AM,19.4,17.6,93,29.95,3.0,NNE,5.8,-,N/A,Snow,Light Snow,20,2012-12-13 11:52:00
6:15 AM,19.4,17.6,93,29.95,2.0,NNE,5.8,-,N/A,Snow,Light Snow,30,2012-12-13 12:15:00
6:35 AM,19.4,17.6,93,29.96,3.0,NNE,4.6,-,N/A,Snow,Light Snow,30,2012-12-13 12:35:00
6:53 AM,19.4,17.6,93,29.97,5.0,North,4.6,-,N/A,,Mostly Cloudy,360,2012-12-13 12:53:00
7:15 AM,17.6,15.8,93,29.97,7.0,North,4.6,-,N/A,,Overcast,360,2012-12-13 13:15:00
7:34 AM,17.6,15.8,93,29.98,7.0,North,3.5,-,N/A,,Overcast,10,2012-12-13 13:34:00
7:53 AM,19.4,15.8,86,29.99,7.0,NNE,5.8,-,N/A,,Overcast,20,2012-12-13 13:53:00
8:15 AM,19.4,15.8,86,29.99,7.0,North,5.8,-,N/A,,Overcast,360,2012-12-13 14:15:00
8:34 AM,19.4,15.8,86,30.00,7.0,NNE,4.6,-,N/A,,Overcast,20,2012-12-13 14:34:00
8:53 AM,19.4,15.8,86,30.00,7.0,Calm,Calm,-,N/A,,Overcast,0,2012-12-13 14:53:00
9:15 AM,19.4,15.8,86,30.01,10.0,North,4.6,-,N/A,,Overcast,10,2012-12-13 15:15:00
9:35 AM,19.4,15.8,86,30.01,10.0,North,6.9,-,N/A,,Overcast,360,2012-12-13 15:35:00
9:53 AM,19.4,15.8,86,30.01,10.0,North,8.1,-,N/A,,Overcast,360,2012-12-13 15:53:00
10:14 AM,19.4,15.8,86,30.01,7.0,North,5.8,-,N/A,,Scattered Clouds,10,2012-12-13 16:14:00
10:35 AM,19.4,15.8,86,30.03,10.0,North,5.8,-,N/A,,Scattered Clouds,10,2012-12-13 16:35:00
10:52 AM,19.4,15.8,86,30.03,10.0,North,8.1,-,N/A,,Mostly Cloudy,10,2012-12-13 16:52:00
11:15 AM,19.4,15.8,86,30.05,10.0,North,5.8,-,N/A,,Overcast,350,2012-12-13 17:15:00
11:35 AM,19.4,15.8,86,30.04,10.0,North,6.9,-,N/A,,Overcast,360,2012-12-13 17:35:00
11:53 AM,19.4,15.8,86,30.04,10.0,North,6.9,-,N/A,,Overcast,10,2012-12-13 17:53:00
12:15 PM,19.4,15.8,86,30.04,10.0,North,6.9,-,N/A,,Mostly Cloudy,360,2012-12-13 18:15:00
12:34 PM,21.2,15.8,80,30.03,10.0,North,4.6,-,N/A,,Mostly Cloudy,10,2012-12-13 18:34:00
12:53 PM,21.2,15.8,80,30.04,10.0,North,4.6,-,N/A,,Scattered Clouds,360,2012-12-13 18:53:00
1:15 PM,21.2,15.8,80,30.03,10.0,North,4.6,-,N/A,,Clear,350,2012-12-13 19:15:00
1:35 PM,21.2,15.8,80,30.04,7.0,NNW,4.6,-,N/A,,Clear,340,2012-12-13 19:35:00
1:53 PM,21.2,15.8,80,30.04,10.0,NNW,4.6,-,N/A,,Clear,330,2012-12-13 19:53:00
2:14 PM,21.2,15.8,80,30.04,10.0,NW,4.6,-,0.01,,Clear,320,2012-12-13 20:14:00
2:35 PM,21.2,15.8,80,30.04,10.0,North,5.8,-,0.01,,Clear,360,2012-12-13 20:35:00
2:53 PM,21.2,15.8,80,30.04,10.0,NW,4.6,-,0.01,,Clear,320,2012-12-13 20:53:00
3:15 PM,21.2,15.8,80,30.04,10.0,Calm,Calm,-,N/A,,Clear,0,2012-12-13 21:15:00
3:35 PM,21.2,15.8,80,30.03,10.0,Calm,Calm,-,N/A,,Clear,0,2012-12-13 21:35:00
3:52 PM,19.4,15.8,86,30.04,10.0,Calm,Calm,-,N/A,,Clear,0,2012-12-13 21:52:00
4:35 PM,17.6,14.0,86,30.04,10.0,Calm,Calm,-,N/A,,Clear,0,2012-12-13 22:35:00
6:53 PM,10.4,8.6,92,30.07,7.0,Calm,Calm,-,N/A,,Clear,0,2012-12-14 00:53:00
7:15 PM,12.2,10.4,92,30.08,5.0,Calm,Calm,-,N/A,,Clear,0,2012-12-14 01:15:00
7:35 PM,10.4,8.6,92,30.07,7.0,Calm,Calm,-,N/A,,Clear,0,2012-12-14 01:35:00
7:53 PM,10.4,10.4,100,30.07,4.0,Calm,Calm,-,N/A,,Clear,0,2012-12-14 01:53:00
8:15 PM,8.6,6.8,92,30.07,4.0,Calm,Calm,-,N/A,,Clear,0,2012-12-14 02:15:00
8:35 PM,8.6,6.8,92,30.08,4.0,Calm,Calm,-,N/A,,Clear,0,2012-12-14 02:35:00
8:52 PM,8.6,6.8,92,30.08,3.0,Calm,Calm,-,N/A,,Clear,0,2012-12-14 02:52:00
9:15 PM,8.6,6.8,92,30.08,2.0,Calm,Calm,-,N/A,,Clear,0,2012-12-14 03:15:00
9:34 PM,6.8,3.2,85,30.08,5.0,Calm,Calm,-,N/A,,Clear,0,2012-12-14 03:34:00
9:53 PM,5.0,3.2,92,30.08,4.0,ESE,3.5,-,N/A,,Clear,120,2012-12-14 03:53:00
10:15 PM,6.8,3.2,85,30.08,4.0,Calm,Calm,-,N/A,,Clear,0,2012-12-14 04:15:00
10:35 PM,3.2,1.4,92,30.07,5.0,Calm,Calm,-,N/A,,Clear,0,2012-12-14 04:35:00
10:53 PM,3.2,1.4,92,30.08,5.0,Calm,Calm,-,N/A,,Clear,0,2012-12-14 04:53:00
11:15 PM,1.4,-0.4,92,30.08,5.0,Calm,Calm,-,N/A,,Clear,0,2012-12-14 05:15:00
11:35 PM,3.2,-0.4,85,30.08,7.0,Calm,Calm,-,N/A,,Clear,0,2012-12-14 05:35:00
11:53 PM,3.2,1.4,92,30.08,7.0,Calm,Calm,-,N/A,,Clear,0,2012-12-14 05:53:00